Terug naar catalogus

COSMOS 2056

ActiefNavigatieLEO
NORAD 20432·PAYLOAD·🇷🇺 Russia

Gelanceerd Jan 18, 1990 vanaf Plesetsk Cosmodrome

Loading…

Volgende Passages (komende 24 uur)

TLE

VersSource: Space-Track

Epoch: Sep 14, 2026, 13:26 UTC

1 20432U 90004A   26257.55998569  .00000089  00000-0  40980-4 0  9994
2 20432  74.0345   2.6923 0021565  35.7031 324.5557 14.34295149916544

Volg COSMOS 2056 in realtime met AllMySat

Download on the App Store